User: anonymous   Login
Location: Unspecified
(0.0000°N, 0.0000°E)
Time: 03:27:21
(UTC+00:00)
Language:

NOSS 2-3 (D) - Orbit

View from above orbital plane
View from above orbital plane
View from above satellite
View from above satellite

Ground track
Ground track

The orbit data is extracted from the following two-line orbital elements,

1 23862U 96029D   17346.76701433 0.00000050  00000-0  28463-4 0    04
2 23862  63.3714 315.2780 0622000  14.5757 345.4243 13.40829322    01
Epoch (UTC): 12 December 2017 18:24:30
Eccentricity: 0.0622000
inclination: 63.3714°
perigee height: 640 km
apogee height: 1572 km
right ascension of ascending node: 315.2780°
argument of perigee: 14.5757°
revolutions per day: 13.40829322
mean anomaly at epoch: 345.4243°
orbit number at epoch: 0

The dashed part of the orbit path shows where the satellite is in the earth's shadow,  

DLR